Flag for Germany Weather past 2 weeks in Wunstorf, Lower Saxony, Germany

Now
48 °F

Cool.


Feels Like: 42 °F
Forecast: 46 / 52 °F
Wind: 17 mph from West

Location: Wunstorf Airport

Current Time: Oct 22, 2014 at 12:07:05 AM

Latest Report: Oct 21, 2014 at 11:20 PM


Visibility: N/A

Pressure: 29.56 "Hg

Humidity: 82%

Dew point: 43 °F

Location of WunstorfLocation

Historic Weather in Wunstorf — Graph

°F

Wunstorf temperature yesterday

Maximum temperature yesterday: 55 °F (at 2:20 AM)
Minimum temperature yesterday: 50 °F (at 8:20 PM)
Average temperature yesterday: 54 °F

Past Weeks' High & Low Weather Summary

 TemperatureHumidityPressure
High73 °F (Oct 19, 2:20 PM)100% (Oct 9, 3:20 AM)30.15 "Hg (Oct 9, 3:20 AM)
Low46 °F (Oct 8, 5:20 AM)49% (Oct 14, 3:20 PM)29.42 "Hg (Oct 21, 6:20 PM)
Average57 °F86%29.82 "Hg
* Reported Oct 6 10:20 PM — Oct 21 10:20 PM, Wunstorf, Weather by CustomWeather, © 2014

Note: Actual official high and low records may vary slightly from our data, if they occured in-between our weather recording intervals... More about our weather records

Advertising

Wunstorf weather history for previous 24 hours

 ConditionsComfort  
Time TempWeatherWind HumidityBarometerVisibility
10:20 PM
Oct 21
50 °FCool.15 mph82%29.53 "HgN/A
9:20 PM52 °FCool.15 mph88%29.47 "HgN/A
8:20 PM50 °FCool.13 mph94%29.45 "HgN/A
7:20 PM54 °FLight rain. Partly cloudy.16 mph88%29.45 "Hg4 mi
6:20 PM54 °FRain. Broken clouds.7 mph94%29.42 "Hg4 mi
5:20 PM54 °FPartly sunny.14 mph88%29.45 "HgN/A
4:20 PM55 °FSprinkles. Partly sunny.18 mph82%29.45 "HgN/A
3:20 PM55 °FSprinkles. Partly sunny.15 mph82%29.50 "HgN/A
2:20 PM55 °FScattered showers. Partly sunny.17 mph82%29.53 "HgN/A
1:20 PM55 °FBroken clouds.12 mph82%29.59 "HgN/A
12:20 PM55 °FSprinkles. Partly sunny.13 mph82%29.62 "HgN/A
11:20 AM55 °FBroken clouds.13 mph82%29.68 "HgN/A
10:20 AM55 °FDrizzle. Partly sunny.14 mph82%29.71 "HgN/A
9:20 AM54 °FPartly sunny.9 mph88%29.71 "HgN/A
8:20 AM55 °FPassing clouds.10 mph82%29.74 "HgN/A
7:20 AM54 °FPassing clouds.9 mph88%29.77 "HgN/A
6:20 AM54 °FPassing clouds.10 mph94%29.77 "HgN/A
5:20 AM55 °FLight rain. Passing clouds.10 mph88%29.80 "HgN/A
4:20 AM55 °FCool.9 mph88%29.83 "HgN/A
3:20 AM55 °FCool.10 mph88%29.83 "HgN/A
2:20 AM55 °FCool.10 mph88%29.86 "HgN/A
1:20 AM54 °FCool.10 mph88%29.86 "HgN/A
12:20 AM54 °FCool.7 mph94%29.86 "HgN/A
Weather by CustomWeather, © 2014

See weather overviewHow to use our weather pages